Other Public Products
Issued by NWS Grand Forks, ND

Home | Current Version | Previous Version | Text Only | Print | Product List | Glossary On
Versions: 1 2 3 4 5 6 7 8 9 10 11 12 13 14 15 16 17 18 19 20 21 22 23 24 25 26 27 28 29 30 31 32 33 34 35 36 37 38 39 40 41 42 43 44 45 46 47 48 49 50
000
FPUS83 KFGF 270831
OPUFGF
PRAIRIE TO PINES WEATHER ROUNDUP
NATIONAL WEATHER SERVICE EASTERN NORTH DAKOTA/GRAND FORKS ND
300 AM CDT FRI MAR 27 2015

 **SATELLITE DATA USED TO AUGMENT SKY COVER AT AUTOMATED STATIONS**
 *****  WEATHER ACROSS EASTERN NORTH DAKOTA  *****

CITY           SKY/WX    TMP DP  RH WIND       PRES   REMARKS
GRAND FORKS    CLEAR     14  11  87 CALM      30.29F
GRAND FORKS AF CLEAR     14  11  88 SW2       30.28F
GRAND CITY NWS   N/A     12 N/A N/A MISG        N/A
BUXTON           N/A     17  13  84 CALM        N/A
DEVILS LAKE    CLEAR     19  14  79 S7        30.22S WCI  10
FARGO          CLEAR     12   6  77 CALM      30.29F
WAHPETON ARPT  SUNNY     12   7  79 CALM      30.29F
$$

 *****  WEATHER ACROSS CENTRAL AND WESTERN NORTH DAKOTA  *****

CITY           SKY/WX    TMP DP  RH WIND       PRES   REMARKS
JAMESTOWN      PTCLDY    15  11  83 S5        30.24F WCI   8
BISMARCK       MOCLDY    25  16  68 S9        30.22F WCI  15
MINOT          CLOUDY    28  17  63 S12       30.13F WCI  18
MINOT AFB      CLOUDY    28  22  79 S13       30.13F WCI  17
GARRISON         N/A     28  18  66 S10       30.15F WCI  19
WILLISTON      CLOUDY    37  29  72 S6        30.07F
DICKINSON      CLOUDY    33  27  78 S14       30.07F WCI  23
HETTINGER      FLURRIES  32  28  85 S9        30.12F WCI  24
$$

 *****  OTHER OBSERVATIONS NORTHEAST NORTH DAKOTA  *****

CITY           SKY/WX    TMP DP  RH WIND       PRES   REMARKS
WALHALLA         N/A     16  16 100 S6        30.27F WCI   7
LANGDON        NOT AVBL
CAVALIER       FAIR      19  12  73 S5        30.29S WCI  13
GRAFTON        NOT AVBL
CANDO          FAIR      23  18  80 S9        30.22S WCI  13
FORT TOTTEN      N/A     19  14  81 SE7       29.95  WCI  10
ROLLA          FAIR      23  21  93 S13       30.19S WCI  11
RUGBY          FAIR      25  18  74 S14G20    30.19S WCI  13
 ***** THE ABOVE OBSERVATIONS ARE NON NWS ARE NOT QUALITY
        CONTROLLED AND MAY MIS-REPORT RAIN FOR SNOW...
$$

 *****  OTHER OBSERVATIONS SOUTHEAST NORTH DAKOTA *****

CITY           SKY/WX    TMP DP  RH WIND       PRES   REMARKS
COOPERSTOWN    NOT AVBL
VALLEY CITY    FAIR      16  16 100 S3        30.26F
OAKES            N/A     18  18 100 CALM      30.27F
GWINNER        SUNNY     21  14  73 CALM        N/A
SHEYENNE NWR     N/A     11   8  89 W2        29.95
BUFFALO        NOT AVBL
WYNDMERE         N/A     14  10  85 W2          N/A
 ***** THE ABOVE OBSERVATIONS ARE NON NWS ARE NOT QUALITY
       CONTROLLED AND MAY MIS-REPORT RAIN FOR SNOW...
$$

  *****  WEATHER ACROSS NORTHERN MINNESOTA  *****

CITY           SKY/WX    TMP DP  RH WIND       PRES   REMARKS
FLAG ISLAND    CLEAR     12   7  79 CALM      30.25F
WARROAD        CLEAR     12   9  85 CALM      30.26F
ROSEAU         CLEAR     16   9  73 CALM      30.27S
HALLOCK        CLEAR     12   9  85 CALM      30.29S
THF RVR FALLS  CLEAR     16  12  86 CALM      30.27S
HALSTAD          N/A     12   9  85 NW3         N/A
FOSSTON        FAIR      10   5  79 CALM      30.26F
BAUDETTE       CLEAR     10   5  80 CALM      30.26S
WASKISH        CLEAR      9   7  92 CALM      30.26F
CROOKSTON      CLEAR     12   9  85 NW3       30.30S
$$
  *****  WEATHER ACROSS CENTRAL AND WEST MINNESOTA  *****

CITY           SKY/WX    TMP DP  RH WIND       PRES   REMARKS
BEMIDJI        CLEAR      7   0  75 CALM      30.24F
PARK RAPIDS    CLEAR     12   1  61 NW3       30.24F
WADENA         CLEAR     12   5  73 CALM      30.25F
DETROIT LAKES  CLEAR     16  12  86 CALM      30.26F
MOORHEAD       CLEAR     16  12  86 CALM      30.29F
FERGUS FALLS   CLEAR     16   9  73 CALM      30.30F
ELBOW LAKE     FAIR      16  12  85 CALM      30.26F
MORRIS MN      CLEAR     18  12  79 N3        30.26F
STAPLES        CLEAR     14   1  57 CALM      30.25F
WHEATON        CLEAR     16  10  79 CALM      30.30F
$$
  *****  WEATHER ELSEWHERE ACROSS MINNESOTA  *****

CITY           SKY/WX    TMP DP  RH WIND       PRES   REMARKS
DULUTH         CLEAR     14   2  58 N5        30.21S WCI   6
INTRNTL FALLS  CLEAR      7   3  84 CALM      30.26S
ELY            CLEAR      5   1  85 CALM      30.22S
CLOQUET        CLEAR     12   0  57 NW5       30.23S WCI   4
BRAINERD       CLEAR     13   5  70 CALM      30.26R
HIBBING        CLEAR      6  -1  73 CALM      30.24R
ALEXANDRIA     CLEAR     16  10  77 N5        30.26S WCI   9
SAINT CLOUD    CLEAR     18   7  62 N3        30.26R
MINNEAPOLIS    CLEAR     23   5  46 N8        30.25R WCI  14
$$

  *****  WEATHER ACROSS SOUTH DAKOTA  *****

CITY           SKY/WX    TMP DP  RH WIND       PRES   REMARKS
SIOUX FALLS    CLEAR     18  12  77 N3        30.26S
BROOKINGS      NOT AVBL
WATERTOWN      CLEAR     13   8  81 NE7       30.24F WCI   3
HURON          CLEAR     13  10  88 CALM      30.29S
SISSETON         N/A     15  12  88 NW5       30.28F WCI   8
ABERDEEN       CLEAR     14   9  80 CALM      30.29F
MITCHELL       CLEAR     17  12  80 NW5       30.30R WCI  10
PIERRE         CLOUDY    27  20  75 E7        30.24F WCI  19
MOBRIDGE       CLOUDY    24  13  62 SE7       30.21F WCI  16
RAPID CITY     CLOUDY    33  27  78 SE9       30.13F
$$

  *****  SOME WEATHER IN NEARBY STATES *****

CITY           SKY/WX    TMP DP  RH WIND       PRES   REMARKS
GLASGOW MT     MOCLDY    38  32  79 E8        29.97F
GREAT FALLS MT PTCLDY    46  35  65 SW10      30.10F
CHEYENNE WY    CLOUDY    43  28  55 W8        30.17F
SCOTTSBLUFF NE LGT RAIN  40  32  73 E9        30.16R
OMAHA NE       PTCLDY    29  23  78 N10       30.24R WCI  20
DES MOINES IA  CLOUDY    32  19  58 N13       30.19S WCI  22
DAVENPORT IA   CLOUDY    29  22  75 N9        30.12S WCI  20
CHICAGO IL     LGT SNOW  28  23  81 NE13      30.07R WCI  17
EAU CLAIRE WI  CLEAR     15   7  70 CALM      30.20S
LA CROSSE WI   CLEAR     23   8  52 NE7       30.21R WCI  15
$$

  *****  SOME NATIONAL WEATHER *****

CITY           SKY/WX    TMP DP  RH WIND       PRES   REMARKS
LA GUARDIA NY  LGT RAIN  43  39  86 N7        29.72R
RALEIGH NC     CLOUDY    63  57  81 SW9       29.66F
ATLANTA GA     CLOUDY    52  46  82 NW14      29.74S
NEW ORLEANS LA CLOUDY    56  48  74 N16       29.95S
OKLAHOMA CITY  MOCLDY    48  33  56 W10       30.07S
ALBUQUERQUE NM PTCLDY    48  19  31 SE3       30.27S
SALT LAKE CITY CLEAR     45  29  53 SE6       30.34S
LOS ANGELES CA CLEAR     64  51  62 E6        30.04S
BOISE ID       CLEAR     48  41  76 SE7       30.25S
SEATTLE WA     PTCLDY    54  48  80 N8        30.13F
$$

*** WEATHER ACROSS MANITOBA...SASKATCHEWAN AND ONTARIO ***
                ***ONTARIO***

CITY           SKY/WX    TMP DP  RH WIND       PRES   REMARKS
GERALDTON      CLEAR    -15 -20  76 NW3       30.20S
THUNDER BAY    CLEAR      7   0  72 N3        30.28S
SIOUX LOOKOUT  CLEAR     -8 -11  84 CALM      30.25
TORONTO        MOCLDY    30  25  80 NW12      29.81S WCI  21
BIG TROUT LK   CLEAR    -11 -17  77 VRB2      30.20F
PICKLE LAKE    NOT AVBL
DRYDEN         CLEAR      7   3  85 W3        30.24R
KENORA         CLEAR     14   0  52 S5        30.24F WCI   6
$$
                *** MANITOBA***

CITY           SKY/WX    TMP DP  RH WIND       PRES   REMARKS
BRANDON        MOCLDY    21  18  86 SE6       30.19F WCI  14
DAUPHIN        MOCLDY    23  18  80 S6        30.17F WCI  16
ISLAND LAKE    CLEAR     -2  -6  84 S2        30.22S
PILOT MOUND      N/A     21  19  93 S9          N/A  WCI  11
THE PAS        PTCLDY    16  14  93 SE9       30.09F WCI   4
THOMPSON       CLEAR      9  -4  56 S3        30.13F
WINNIPEG       CLEAR     14   7  73 S6        30.28F WCI   5
LYNN LAKE      CLOUDY    14   7  73 S2        30.02F
CHURCHILL      CLEAR      1  -8  66 W9        30.08F WCI -14
GILLAM         CLEAR      3  -9  55 SW3       30.14F
$$
                ***SASKATCHEWAN***

CITY           SKY/WX    TMP DP  RH WIND       PRES   REMARKS
ESTEVAN        CLOUDY    34  27  75 S8        30.07F
KINDERSLEY     MOCLDY    32  30  93 SW5       29.92F
LLOYDMINSTER   MOCLDY    37  32  81 SW10      29.87F
PRINCE ALBERT  LGT SNOW  34  32  93 S6        29.93F
REGINA         FLURRIES  32  30  93 SE18      29.97F WCI  20



USA.gov is the U.S. government's official web portal to all federal, state and local government web resources and services.